Location: Ebersheim
(48.3033°N, 7.4991°E)
Time: 03:54:56
(UTC+00:00)

STARLINK-45 - Pass Details

Date: 27 February 2020
Orbit: 529 x 530 km, 53.0° (Epoch: 09 April)

Event Time Altitude Azimuth Distance (km) Brightness Sun altitude
Rises 19:15:48 0° 290° (WNW) 2,669 8.6 -21.6°
Reaches altitude 10° 19:18:05 10° 296° (WNW) 1,779 7.3 -22.0°
Enters shadow 19:22:00 47° 11° (N) 706 4.1 -22.6°
